Fullerton, CA

8:56 AM PDT on July 28, 2017 (GMT -0700)
Fullerton Municipal

Weather History for KFUL - April, 2015

Change the Weather History Date:

Saturday, April 18, 2015

  Actual Average Record
Temperature  
Mean Temperature 67 °F 63 °F  
Max Temperature 80 °F 73 °F 91 °F (2016)
Min Temperature 54 °F 53 °F 48 °F (2006)
Degree Days  
Heating Degree Days 0 3  
Month to date heating degree days 18 71  
Since 1 July heating degree days 414 1163  
Cooling Degree Days 2 1  
Month to date cooling degree days 39 15  
Year to date cooling degree days 240 37  
Growing Degree Days 17 (Base 50)    
Moisture  
Dew Point 43 °F    
Average Humidity 40    
Maximum Humidity 57    
Minimum Humidity 23    
Precipitation  
Precipitation 0.00 in 0.04 in 0.50 in (1957)
Month to date precipitation 0.21 0.51  
Year to date precipitation 1.72 8.95  
Snow  
Snow 0.00 in - - ()
Month to date snowfall 0.0  
Snow Depth 0.00 in    
Sea Level Pressure  
Sea Level Pressure 29.97 in    
Wind  
Wind Speed 5 mph (SSW)    
Max Wind Speed 10 mph    
Max Gust Speed 15 mph    
Visibility 10 miles    
Events      
T = Trace of Precipitation, MM = Missing Value Source: NWS Daily Summary

Daily Weather History Graph

Daily Weather History Graph

Search for Another Location

Airport or City:

Trip Planner

Search our weather history database for the weather conditions in past years. The results will help you decide how hot, cold, wet, or windy it might be!

Date:

Astronomy

Apr. 18, 2015 Rise Set
Actual Time 6:17 AM PDT 7:25 PM PDT
Civil Twilight 5:51 AM PDT 7:51 PM PDT
Nautical Twilight 5:21 AM PDT 8:22 PM PDT
Astronomical Twilight 4:49 AM PDT 8:53 PM PDT
Moon 6:18 AM PDT (4/18) 7:39 PM PDT (4/18)
Length of Visible Light 13h 59m
Length of Day
13h 07m
New Moon, 0% of the Moon is Illuminated
Apr 18
New Moon
Apr 25
First Quarter
May 3
Full
May 11
Last Quarter
May 17
New

Hourly Weather History & Observations

Time (PDT) Temp. Dew Point Humidity Pressure Visibility Wind Dir Wind Speed Gust Speed Precip Events Conditions
12:53 AM 60.1 °F 41.0 °F 49% 30.02 in 10.0 mi Calm Calm - N/A   Clear
1:53 AM 59.0 °F 44.1 °F 58% 30.01 in 10.0 mi Calm Calm - N/A   Clear
2:53 AM 57.9 °F 37.9 °F 47% 29.99 in 10.0 mi East 4.6 mph - N/A   Clear
3:53 AM 55.9 °F 39.9 °F 55% 29.98 in 10.0 mi Calm Calm - N/A   Clear
4:53 AM 55.0 °F 39.9 °F 57% 29.99 in 10.0 mi Calm Calm - N/A   Clear
5:53 AM 55.9 °F 36.0 °F 47% 29.99 in 10.0 mi East 3.5 mph - N/A   Clear
6:53 AM 57.0 °F 35.1 °F 44% 30.00 in 10.0 mi East 3.5 mph - N/A   Clear
7:53 AM 62.1 °F 35.1 °F 37% 30.02 in 10.0 mi East 3.5 mph - N/A   Clear
8:53 AM 66.0 °F 39.9 °F 38% 30.01 in 10.0 mi Calm Calm - N/A   Clear
9:53 AM 70.0 °F 42.1 °F 36% 30.01 in 10.0 mi SSE 4.6 mph - N/A   Clear
10:53 AM 73.9 °F 37.0 °F 26% 30.01 in 10.0 mi Variable 4.6 mph - N/A   Clear
11:53 AM 77.0 °F 43.0 °F 30% 29.99 in 10.0 mi SW 9.2 mph - N/A   Clear
12:53 PM 78.1 °F 39.9 °F 25% 29.97 in 10.0 mi SW 9.2 mph - N/A   Clear
1:53 PM 79.0 °F 37.9 °F 23% 29.95 in 10.0 mi SW 9.2 mph - N/A   Clear
2:53 PM 79.0 °F 37.9 °F 23% 29.93 in 10.0 mi SW 6.9 mph - N/A   Clear
3:53 PM 78.1 °F 39.9 °F 25% 29.92 in 10.0 mi SSW 9.2 mph - N/A   Clear
4:53 PM 77.0 °F 50.0 °F 39% 29.91 in 10.0 mi SSW 8.1 mph - N/A   Clear
5:53 PM 75.0 °F 48.0 °F 38% 29.91 in 10.0 mi South 9.2 mph - N/A   Clear
6:53 PM 73.9 °F 46.9 °F 38% 29.90 in 10.0 mi Calm Calm - N/A   Clear
7:53 PM 70.0 °F 45.0 °F 41% 29.92 in 10.0 mi West 4.6 mph - N/A   Clear
8:53 PM 66.0 °F 52.0 °F 60% 29.94 in 10.0 mi WSW 5.8 mph - N/A   Clear
9:53 PM 64.0 °F 53.1 °F 67% 29.96 in 10.0 mi West 3.5 mph - N/A   Clear
10:53 PM 63.0 °F 54.0 °F 72% 29.96 in 10.0 mi Calm Calm - N/A   Clear
11:53 PM 62.1 °F 53.1 °F 72% 29.96 in 10.0 mi Calm Calm - N/A   Clear